Retour au catalogue

DELTA 1 DEB

ActifSSO
NORAD 7136·DEBRIS·🇺🇸 United States

Lancé Nov 6, 1973 depuis Vandenberg Space Force Base

Loading…

Prochains Passages (prochaines 24 heures)

TLE

FraisSource: Space-Track

Époque: Sep 14, 2026, 04:49 UTC

1 07136U 73086DA  26257.20089456  .00000080  00000-0  77525-3 0  9994
2 07136 101.6052 233.4330 0043677 276.9631  96.8929 12.53977089412655

Suivez DELTA 1 DEB en temps réel avec AllMySat

Download on the App Store